This is the latest recevied weather packets stored in our database for station/object 9A3XK-13. If no packets are shown the sender has not sent any weather packets the latest 10 day(s).
| Time | Temp. | Humidity | Pressure | Rain* | Wind** | Luminosity | Snow |
|---|---|---|---|---|---|---|---|
| 1777880416 | 17.22° C | 52% | 1018.4 hPa | 0 mm | - | 618 W/m² | - |
| 1777880117 | 17.22° C | 53% | 1018.4 hPa | 0 mm | - | 606 W/m² | - |
| 1777879816 | 16.67° C | 53% | 1018.4 hPa | 0 mm | - | 593 W/m² | - |
| 1777879516 | 16.67° C | 54% | 1018.4 hPa | 0 mm | - | 581 W/m² | - |
| 1777879216 | 16.11° C | 56% | 1018.4 hPa | 0 mm | - | 568 W/m² | - |
| 1777878916 | 16.11° C | 56% | 1018.5 hPa | 0 mm | - | 553 W/m² | - |
| 1777878616 | 15.56° C | 56% | 1018.5 hPa | 0 mm | - | 541 W/m² | - |
| 1777878316 | 15.56° C | 57% | 1018.4 hPa | 0 mm | - | 527 W/m² | - |
| 1777878016 | 15° C | 59% | 1018.3 hPa | 0 mm | - | 513 W/m² | - |
| 1777877716 | 14.44° C | 59% | 1018.3 hPa | 0 mm | - | 498 W/m² | - |
| 1777877416 | 14.44° C | 62% | 1018.2 hPa | 0 mm | - | 485 W/m² | - |
| 1777877116 | 13.89° C | 62% | 1018.2 hPa | 0 mm | - | 474 W/m² | - |
| 1777876816 | 13.89° C | 64% | 1018.3 hPa | 0 mm | - | 460 W/m² | - |
| 1777876517 | 13.33° C | 64% | 1018.4 hPa | 0 mm | - | 444 W/m² | - |
| 1777876216 | 12.78° C | 65% | 1018.4 hPa | 0 mm | - | 430 W/m² | - |
| 1777875916 | 12.78° C | 66% | 1018.3 hPa | 0 mm | - | 414 W/m² | - |
| 1777875617 | 12.22° C | 68% | 1018.4 hPa | 0 mm | - | 400 W/m² | - |
| 1777875316 | 12.22° C | 68% | 1018.4 hPa | 0 mm | - | 386 W/m² | - |
| 1777875016 | 11.67° C | 67% | 1018.2 hPa | 0 mm | - | 371 W/m² | - |
| 1777874716 | 11.67° C | 68% | 1018.2 hPa | 0 mm | - | 355 W/m² | - |
| 1777874416 | 11.11° C | 68% | 1018.2 hPa | 0 mm | - | 339 W/m² | - |
| 1777874116 | 11.11° C | 69% | 1018.3 hPa | 0 mm | - | 323 W/m² | - |
| 1777873816 | 10.56° C | 69% | 1018.3 hPa | 0 mm | - | 161 W/m² | - |
| 1777873516 | 10.56° C | 71% | 1018.2 hPa | 0 mm | - | 33 W/m² | - |
| 1777873216 | 10° C | 71% | 1018.2 hPa | 0 mm | - | 33 W/m² | - |
* Rain latest hour (hover to see other rain measurements)
** Current wind speed in m/s (hover to see current wind gust speed)